• In Netherlands
  • List of Countries
  • For 7 days
  • Water Temperature
  • Satellite Maps
  • Weather Map
  • Weather Widgets
  • user-avatar
    Login

    Hourly Weather Vitebsk

    Today, 23 February, Thursday

    Time Temperature Precipitation Wind Pressure Humidity
    00:00 -3°C° 0.3 mm 6 mps 726 mmHg 96%
    01:00 -3°C° 0.3 mm 6 mps 726 mmHg 97%
    02:00 -1°C° 0.3 mm 5 mps 725 mmHg 98%
    03:00 -1°C° 0.1 mm 5 mps 725 mmHg 98%
    04:00 -1°C° 0.1 mm 5 mps 724 mmHg 98%
    05:00 -1°C° 0.1 mm 4 mps 724 mmHg 97%
    06:00 -1°C° 0.1 mm 4 mps 724 mmHg 98%
    07:00 -1°C° 0.1 mm 4 mps 724 mmHg 98%
    08:00 -1°C° 0.1 mm 4 mps 724 mmHg 98%
    09:00 -1°C° 0.1 mm 4 mps 724 mmHg 98%
    10:00 -1°C° 0.1 mm 5 mps 724 mmHg 98%
    11:00 -1°C° 0.1 mm 5 mps 724 mmHg 98%
    12:00 -1°C° 0.2 mm 5 mps 724 mmHg 98%
    13:00 -1°C° 0.2 mm 5 mps 724 mmHg 98%
    14:00 -1°C° 0.2 mm 5 mps 724 mmHg 97%
    15:00 -2°C° 0.2 mm 6 mps 724 mmHg 97%
    16:00 -2°C° 0.2 mm 6 mps 724 mmHg 97%
    17:00 -2°C° 0.2 mm 6 mps 725 mmHg 97%
    18:00 -2°C° 0.1 mm 6 mps 725 mmHg 96%
    19:00 -1°C° 0.1 mm 5 mps 726 mmHg 95%
    20:00 -1°C° 0.1 mm 5 mps 727 mmHg 94%
    21:00 -1°C° 0 mm 5 mps 727 mmHg 94%
    22:00 -2°C° 0 mm 4 mps 727 mmHg 94%
    23:00 -2°C° 0 mm 4 mps 728 mmHg 94%

    Tomorrow, 24 February, Friday

    Time Temperature Precipitation Wind Pressure Humidity
    00:00 -2°C° 0 mm 4 mps 727 mmHg 95%
    01:00 -2°C° 0 mm 4 mps 727 mmHg 96%
    02:00 -2°C° 0 mm 4 mps 727 mmHg 96%
    03:00 -2°C° 0.3 mm 4 mps 726 mmHg 96%
    04:00 -2°C° 0.3 mm 5 mps 725 mmHg 96%
    05:00 -1°C° 0.3 mm 5 mps 724 mmHg 96%
    06:00 -1°C° 1 mm 5 mps 723 mmHg 97%
    07:00 -2°C° 1 mm 6 mps 722 mmHg 98%
    08:00 -2°C° 1 mm 6 mps 721 mmHg 98%
    09:00 -1°C° 0.5 mm 6 mps 720 mmHg 98%
    10:00 -1°C° 0.5 mm 6 mps 720 mmHg 99%
    11:00 +1°C° 0.5 mm 6 mps 719 mmHg 99%
    12:00 0°C° 0.4 mm 7 mps 720 mmHg 97%
    13:00 0°C° 0.4 mm 7 mps 720 mmHg 95%
    14:00 0°C° 0.4 mm 7 mps 720 mmHg 94%
    15:00 -1°C° 0.4 mm 7 mps 721 mmHg 93%
    16:00 -2°C° 0.4 mm 8 mps 722 mmHg 92%
    17:00 -2°C° 0.4 mm 8 mps 723 mmHg 90%
    18:00 -4°C° 0.1 mm 8 mps 725 mmHg 88%
    19:00 -5°C° 0.1 mm 8 mps 727 mmHg 86%
    20:00 -6°C° 0.1 mm 7 mps 728 mmHg 83%
    21:00 -7°C° 0 mm 7 mps 729 mmHg 83%
    22:00 -7°C° 0 mm 7 mps 730 mmHg 82%
    23:00 -7°C° 0 mm 7 mps 732 mmHg 82%

    Day after tomorrow, 25 February, Saturday

    Time Temperature Precipitation Wind Pressure Humidity
    00:00 -7°C° 0 mm 7 mps 732 mmHg 81%
    01:00 -6°C° 0 mm 6 mps 733 mmHg 81%
    02:00 -8°C° 0 mm 6 mps 733 mmHg 80%
    03:00 -7°C° 0 mm 7 mps 733 mmHg 80%
    04:00 -7°C° 0 mm 7 mps 733 mmHg 80%
    05:00 -7°C° 0 mm 8 mps 734 mmHg 80%
    06:00 -7°C° 0.1 mm 8 mps 734 mmHg 79%
    07:00 -7°C° 0.1 mm 8 mps 734 mmHg 78%
    08:00 -6°C° 0.1 mm 8 mps 734 mmHg 77%
    09:00 -6°C° 0.1 mm 9 mps 734 mmHg 76%
    10:00 -6°C° 0.1 mm 9 mps 735 mmHg 74%
    11:00 -7°C° 0.1 mm 10 mps 735 mmHg 72%
    12:00 -5°C° 0.2 mm 10 mps 736 mmHg 72%
    13:00 -5°C° 0.2 mm 10 mps 736 mmHg 72%
    14:00 -5°C° 0.2 mm 10 mps 736 mmHg 71%
    15:00 -6°C° 0.2 mm 9 mps 737 mmHg 74%
    16:00 -6°C° 0.2 mm 9 mps 737 mmHg 77%
    17:00 -6°C° 0.2 mm 8 mps 738 mmHg 80%
    18:00 -6°C° 0.2 mm 8 mps 738 mmHg 81%
    19:00 -7°C° 0.2 mm 8 mps 739 mmHg 81%
    20:00 -7°C° 0.2 mm 8 mps 740 mmHg 82%
    21:00 -7°C° 0.1 mm 8 mps 740 mmHg 83%
    22:00 -7°C° 0.1 mm 7 mps 741 mmHg 83%
    23:00 -7°C° 0.1 mm 7 mps 741 mmHg 83%

    26 February, Sunday

    Time Temperature Precipitation Wind Pressure Humidity
    00:00 -7°C° 0 mm 7 mps 742 mmHg 84%
    01:00 -7°C° 0 mm 7 mps 743 mmHg 84%
    02:00 -8°C° 0 mm 6 mps 743 mmHg 84%
    03:00 -8°C° 0 mm 6 mps 743 mmHg 85%
    04:00 -8°C° 0 mm 6 mps 744 mmHg 85%
    05:00 -7°C° 0 mm 5 mps 744 mmHg 86%
    06:00 -7°C° 0 mm 5 mps 744 mmHg 86%
    07:00 -7°C° 0 mm 5 mps 744 mmHg 87%
    08:00 -8°C° 0 mm 4 mps 745 mmHg 88%
    09:00 -7°C° 0 mm 5 mps 744 mmHg 84%
    10:00 -5°C° 0 mm 5 mps 744 mmHg 81%
    11:00 -4°C° 0 mm 5 mps 744 mmHg 78%
    12:00 -4°C° 0.2 mm 6 mps 744 mmHg 81%
    13:00 -4°C° 0.2 mm 6 mps 743 mmHg 84%
    14:00 -3°C° 0.2 mm 7 mps 742 mmHg 87%
    15:00 -3°C° 0.5 mm 7 mps 742 mmHg 89%
    16:00 -3°C° 0.5 mm 6 mps 741 mmHg 91%
    17:00 -3°C° 0.5 mm 6 mps 740 mmHg 93%
    18:00 -3°C° 0.5 mm 6 mps 740 mmHg 93%
    19:00 -3°C° 0.5 mm 6 mps 740 mmHg 94%
    20:00 -2°C° 0.5 mm 7 mps 739 mmHg 94%
    21:00 -2°C° 0.1 mm 6 mps 739 mmHg 95%
    22:00 -2°C° 0.1 mm 6 mps 739 mmHg 95%
    23:00 -1°C° 0.1 mm 5 mps 740 mmHg 96%

    27 February, Monday

    Time Temperature Precipitation Wind Pressure Humidity
    00:00 -1°C° 0.1 mm 5 mps 740 mmHg 96%
    01:00 -1°C° 0.1 mm 5 mps 740 mmHg 96%
    02:00 -1°C° 0.1 mm 5 mps 740 mmHg 97%
    03:00 -1°C° 0.1 mm 5 mps 740 mmHg 97%
    04:00 -1°C° 0.1 mm 5 mps 740 mmHg 97%
    05:00 -1°C° 0.1 mm 4 mps 740 mmHg 97%
    06:00 -1°C° 0.1 mm 5 mps 740 mmHg 97%
    07:00 -1°C° 0.1 mm 5 mps 740 mmHg 97%
    08:00 -1°C° 0.1 mm 5 mps 740 mmHg 98%
    09:00 -1°C° 0.1 mm 5 mps 741 mmHg 97%
    10:00 -1°C° 0.1 mm 5 mps 741 mmHg 97%
    11:00 0°C° 0.1 mm 5 mps 741 mmHg 97%
    12:00 0°C° 0 mm 5 mps 742 mmHg 96%
    13:00 0°C° 0 mm 4 mps 742 mmHg 96%
    14:00 0°C° 0 mm 4 mps 742 mmHg 95%
    15:00 0°C° 0 mm 4 mps 743 mmHg 95%
    16:00 0°C° 0 mm 3 mps 744 mmHg 95%
    17:00 0°C° 0 mm 3 mps 744 mmHg 95%
    18:00 -1°C° 0 mm 2 mps 745 mmHg 96%
    19:00 -1°C° 0 mm 2 mps 745 mmHg 96%
    20:00 +1°C° 0 mm 1 mps 746 mmHg 96%
    21:00 +1°C° 0 mm 1 mps 746 mmHg 96%
    22:00 0°C° 0 mm 1 mps 746 mmHg 95%
    23:00 0°C° 0 mm 1 mps 747 mmHg 95%

    28 February, Tuesday

    Time Temperature Precipitation Wind Pressure Humidity
    00:00 0°C° 0 mm 1 mps 747 mmHg 95%
    01:00 0°C° 0 mm 1 mps 747 mmHg 95%
    02:00 -2°C° 0 mm 2 mps 748 mmHg 94%
    03:00 -2°C° 0 mm 2 mps 748 mmHg 95%
    04:00 -2°C° 0 mm 2 mps 748 mmHg 95%
    05:00 -1°C° 0 mm 2 mps 748 mmHg 95%
    06:00 -1°C° 0 mm 3 mps 748 mmHg 96%
    07:00 -1°C° 0 mm 3 mps 748 mmHg 96%
    08:00 0°C° 0 mm 3 mps 748 mmHg 96%
    09:00 0°C° 0 mm 3 mps 748 mmHg 97%
    10:00 -1°C° 0 mm 4 mps 748 mmHg 97%
    11:00 0°C° 0 mm 4 mps 749 mmHg 97%
    12:00 0°C° 0 mm 4 mps 748 mmHg 97%
    13:00 0°C° 0 mm 4 mps 748 mmHg 96%
    14:00 +1°C° 0 mm 5 mps 748 mmHg 96%
    15:00 0°C° 0 mm 5 mps 748 mmHg 96%
    16:00 0°C° 0 mm 5 mps 748 mmHg 96%
    17:00 0°C° 0 mm 5 mps 748 mmHg 96%
    18:00 0°C° 0 mm 5 mps 747 mmHg 96%
    19:00 -1°C° 0 mm 6 mps 747 mmHg 96%
    20:00 -1°C° 0 mm 6 mps 747 mmHg 96%
    21:00 -1°C° 0 mm 6 mps 747 mmHg 96%
    22:00 -1°C° 0 mm 6 mps 747 mmHg 96%
    23:00 -1°C° 0 mm 6 mps 747 mmHg 95%
    Show more